Location: Unspecified
(33.9239°N, 118.0544°W)
Time: 22:30:38
(UTC-07:00)

Cosmos 2058 - Visible Passes

Search period start: 25 March 2017 00:00
Search period end: 04 April 2017 00:00
Orbit: 564 x 585 km, 82.5° (Epoch: 24 March)

Date Brightness Start Highest point End Pass type
(mag) Time Alt. Az. Time Alt. Az. Time Alt. Az.
27 Mar 5.5 21:33:34 10° N 21:34:00 13° N 21:34:00 13° N visible
28 Mar 5.3 21:36:56 10° N 21:37:52 16° N 21:37:52 16° N visible
29 Mar 5.1 21:40:22 10° NNW 21:41:47 21° NNW 21:41:47 21° NNW visible
30 Mar 5.0 21:43:53 10° NNW 21:45:44 24° NNW 21:45:44 24° NNW visible
31 Mar 4.9 20:12:10 10° NE 20:13:29 13° ENE 20:13:29 13° ENE visible
31 Mar 4.9 21:47:28 10° NNW 21:49:45 26° NW 21:49:45 26° NW visible
01 Apr 4.4 20:14:51 10° NNE 20:17:33 18° ENE 20:17:33 18° ENE visible
01 Apr 5.1 21:51:11 10° NW 21:53:48 24° WNW 21:53:48 24° WNW visible
02 Apr 4.0 20:17:48 10° NNE 20:21:12 24° ENE 20:21:40 24° E visible
02 Apr 5.4 21:55:02 10° NW 21:57:55 19° W 21:57:57 19° W visible
03 Apr 3.6 20:20:55 10° NNE 20:24:40 33° E 20:25:52 27° ESE visible
03 Apr 5.7 21:59:10 10° WNW 22:01:13 14° W 22:02:09 13° WSW visible
